Location: Squirrel Cove
(50.1074°N, 124.9139°W)
Time: 00:41:35
(UTC-08:00)

BlueWalker 3 - Pass Details

Date: 08 December 2022
Orbit: 499 x 517 km, 53.2° (Epoch: 29 January)

Event Time Altitude Azimuth Distance (km) Brightness Sun altitude
Rises 18:52:54 0° 292° (WNW) 2,629 6.6 -23.8°
Reaches altitude 10° 18:55:14 10° 283° (WNW) 1,736 5.6 -24.1°
Maximum altitude 18:58:49 34° 217° (SW) 850 3.4 -24.7°
Enters shadow 18:59:22 32° 198° (SSW) 881 3.3 -24.8°
